Pellston, MI

8:47 PM EST on February 21, 2018 (GMT -0500)
Pellston Regional Airport Of Emmet County

Weather History for KPLN - March, 2013

Change the Weather History Date:

Monday, March 4, 2013

  Actual Average Record
Temperature  
Mean Temperature 10 °F -  
Max Temperature 28 °F 32 °F 47 °F (1992)
Min Temperature -8 °F 13 °F -28 °F (1962)
Degree Days  
Heating Degree Days 55    
Moisture  
Dew Point 0 °F    
Average Humidity 64    
Maximum Humidity 84    
Minimum Humidity 30    
Precipitation  
Precipitation 0.00 in - - ()
Sea Level Pressure  
Sea Level Pressure 30.17 in    
Wind  
Wind Speed 3 mph (NW)    
Max Wind Speed 8 mph    
Max Gust Speed -    
Visibility 10 miles    
Events      
Averages and records for this station are not official NWS values.
T = Trace of Precipitation, MM = Missing Value Source: NWS Daily Summary

Daily Weather History Graph

Daily Weather History Graph

Search for Another Location

Airport or City:

Trip Planner

Search our weather history database for the weather conditions in past years. The results will help you decide how hot, cold, wet, or windy it might be!

Date:

Astronomy

Mar. 04, 2013 Rise Set
Actual Time 7:11 AM EST 6:30 PM EST
Civil Twilight 6:42 AM EST 7:00 PM EST
Nautical Twilight 6:07 AM EST 7:34 PM EST
Astronomical Twilight 5:33 AM EST 8:09 PM EST
Moon 1:32 AM EST (3/4) 10:58 AM EST (3/4)
Length of Visible Light 12h 18m
Length of Day
11h 18m
Waning Gibbous, 52% of the Moon is Illuminated
Mar 4
Waning Gibbous
Mar 4
Last Quarter
Mar 11
New
Mar 19
First Quarter
Mar 27
Full

Hourly Weather History & Observations

Time (EST) Temp. Windchill Dew Point Humidity Pressure Visibility Wind Dir Wind Speed Gust Speed Precip Events Conditions
12:54 AM 3.0 °F -4.4 °F -0.9 °F 84% 30.13 in 10.0 mi WNW 3.5 mph - N/A   Clear
1:54 AM 1.9 °F -7.6 °F -2.0 °F 83% 30.14 in 10.0 mi NW 4.6 mph - N/A   Clear
2:54 AM -0.9 °F - -6.0 °F 79% 30.15 in 10.0 mi Calm Calm - N/A   Clear
3:54 AM -2.9 °F - -9.0 °F 75% 30.14 in 10.0 mi Calm Calm - N/A   Clear
4:54 AM -5.1 °F -17.6 °F -11.0 °F 76% 30.16 in 10.0 mi NW 5.8 mph - N/A   Clear
5:54 AM -6.0 °F - -11.9 °F 75% 30.18 in 10.0 mi Calm Calm - N/A   Clear
6:54 AM -8.0 °F - -13.0 °F 79% 30.18 in 10.0 mi Calm Calm - N/A   Clear
7:54 AM -8.0 °F - -14.1 °F 75% 30.19 in 10.0 mi Calm Calm - N/A   Clear
8:54 AM 3.9 °F -3.4 °F -0.9 °F 80% 30.20 in 10.0 mi NW 3.5 mph - N/A   Clear
9:54 AM 15.1 °F 4.2 °F 7.0 °F 70% 30.20 in 10.0 mi North 8.1 mph - N/A   Clear
10:54 AM 19.0 °F 12.3 °F 7.0 °F 59% 30.19 in 10.0 mi North 4.6 mph - N/A   Clear
11:54 AM 21.9 °F 17.2 °F 9.0 °F 58% 30.19 in 10.0 mi North 3.5 mph - N/A   Clear
12:54 PM 24.1 °F - 8.1 °F 51% 30.18 in 10.0 mi Calm Calm - N/A   Clear
1:54 PM 27.0 °F 20.5 °F 9.0 °F 47% 30.16 in 10.0 mi NW 5.8 mph - N/A   Clear
2:54 PM 27.0 °F 20.5 °F 7.0 °F 43% 30.16 in 10.0 mi NW 5.8 mph - N/A   Clear
3:54 PM 27.0 °F 19.5 °F 6.1 °F 41% 30.15 in 10.0 mi WNW 6.9 mph - N/A   Clear
4:54 PM 28.0 °F 21.7 °F 3.0 °F 34% 30.16 in 10.0 mi NNW 5.8 mph - N/A   Clear
5:54 PM 28.0 °F - -0.0 °F 30% 30.16 in 10.0 mi Calm Calm - N/A   Clear
6:54 PM 19.9 °F 12.1 °F 1.9 °F 46% 30.18 in 10.0 mi NW 5.8 mph - N/A   Clear
7:54 PM 15.1 °F 9.4 °F 3.9 °F 61% 30.19 in 10.0 mi NW 3.5 mph - N/A   Clear
8:54 PM 9.0 °F 0.6 °F 1.0 °F 70% 30.20 in 10.0 mi North 4.6 mph - N/A   Clear
9:54 PM 10.9 °F - 1.9 °F 67% 30.19 in 10.0 mi Calm Calm - N/A   Clear
10:54 PM 5.0 °F - -0.0 °F 80% 30.19 in 10.0 mi Calm Calm - N/A   Clear
11:54 PM 5.0 °F - -0.9 °F 76% 30.19 in 10.0 mi Calm Calm - N/A   Clear